LEMUR 2 KREMPEL-BRO2

导读

LEMUR 2 KREMPEL-BRO2是Spire Global公司LEMUR-2系列3U立方星之一,属于该公司全球商业遥感星座组成部分。该卫星于2025年3月26日发射,主要承担无线电掩星探测、全球船舶跟踪与气象监测任务,运行于400-600公里近地轨道,可提供近实时地球观测数据,支撑海洋航运监控与气象科学研究。

Basic Information
目录编号:
63353
目录名称:
LEMUR 2 KREMPEL-BRO2
国际标识:
2025-061C
轨道中心:
EARTH
卫星名称:
LEMUR 2 KREMPEL-BRO2
卫星全名:
LEMUR 2 KREMPEL-BRO2
卫星状态:
在轨 (已飞行535 天)
发射日期:
2025-03-26 UTC
国别 :
美国 (US)
星等 :
--
This satellite is enrolled in the Space Conjunction Data Service (SCDS) and the current flight risk assessment level is: No High Risk
Orbit Information
数据来源 国际轨道数据
星历时间: 2026-09-12T12:28:10+0800
6小时前
查看轨道信息
半长轴: 6900.479km
偏心率: 0.0017928
轨道倾角: 97.579°
近地点辐角 321.280°
升交点赤经 230.749°
平近点角 38.715°
近地点: 509.97km
远地点: 534.714km
周期: 95.078分钟
每日圈数: 15.145512
Detailed Information
使用方式:
暂无
2D Orbit Map
3D Orbit Map
Orbit Altitude Analysis Chart
Orbit Inclination Analysis Chart
Orbit Comprehensive Analysis Chart
View Comprehensive Chart
Conjunction Data List
Event ID Objects TCA Miss Dist (km) Collision Risk Probability Collision Risk Index (CRI) Action
CDM_260913-204505-267006-335323
2026-09-13T
20:45:30+0000
2.634 km
极远距离
1.582535E-6 低风险 0.39
CDM_260912-135804-871306-335321
2026-09-12T
13:58:55+0000
2.754 km
极远距离
1.514784E-6 低风险 0.39
Miss Distance Evolution Trend with All Objects
Collision Probability Evolution Trend with All Objects